This demonstration page uses our WeatherBlox Daily Observations layout. Learn more.

Left ArrowRight Arrow

44.8408, -93.29828

Hourly Observations for September 14, 2019

Temp ( °F °C ) Dew Point ( °F °C ) Humidity (%) Winds ( mph kmh ) Pressure ( in mb ) Visibility ( mi km ) Precip ( " mm )
12:53 am 00:53 Clear 56 13.3 51 10.6 84 84 WSW 5 7 30.08 1019 10 16 0.00 0.00
1:53 am 01:53 Clear 55 12.8 51 10.6 87 87 WSW 5 7 30.09 1019 10 16 0.00 0.00
2:53 am 02:53 Clear 54 12.2 50 10 87 87 SW 8 13 30.10 1019 10 16 0.00 0.00
3:53 am 03:53 Clear 53 11.7 50 10 89 89 SW 6 9 30.11 1020 10 16 0.00 0.00
4:53 am 04:53 Clear 52 11.1 49 9.4 89 89 SW 5 7 30.11 1020 10 16 0.00 0.00
5:53 am 05:53 Clear 52 11.1 49 9.4 89 89 Calm 30.11 1020 10 16 0.00 0.00
6:53 am 06:53 Mostly Sunny 52 11.1 48 8.9 86 86 Calm 30.11 1020 10 16 0.00 0.00
7:53 am 07:53 Mostly Sunny 53 11.7 50 10 89 89 SE 6 9 30.11 1020 10 16 0.00 0.00
8:53 am 08:53 Partly Cloudy 57 13.9 51 10.6 81 81 SSE 5 7 30.10 1019 10 16 0.00 0.00
9:53 am 09:53 Partly Cloudy 61 16.1 53 11.7 75 75 ESE 6 9 30.11 1020 10 16 0.00 0.00
10:53 am 10:53 Mostly Cloudy 65 18.3 55 12.8 70 70 SE 7 11 30.09 1019 10 16 0.00 0.00
11:53 am 11:53 Mostly Cloudy 68 20 57 13.9 68 68 ESE 13 20 30.06 1018 10 16 0.00 0.00
12:53 pm 12:53 Mostly Cloudy 69 20.6 58 14.4 68 68 ESE 13 20 30.04 1017 10 16 0.00 0.00
1:53 pm 13:53 Mostly Cloudy 71 21.7 60 15.6 68 68 ESE 8 13 30.01 1016 10 16 0.00 0.00
2:53 pm 14:53 Mostly Cloudy 74 23.3 60 15.6 62 62 SE 10 17 29.98 1015 10 16 0.00 0.00
3:53 pm 15:53 Mostly Cloudy 75 23.9 61 16.1 62 62 SE 12 19 29.95 1014 10 16 0.00 0.00
4:53 pm 16:53 Cloudy 73 22.8 62 16.7 69 69 SE 10 17 29.95 1014 10 16 0.00 0.00
5:53 pm 17:53 Cloudy 71 21.7 62 16.7 73 73 E 10 17 29.95 1014 10 16 0.00 0.00
6:53 pm 18:53 Cloudy 71 21.7 62 16.7 73 73 E 7 11 29.94 1014 10 16 0.00 0.00
7:53 pm 19:53 Mostly Cloudy 70 21.1 62 16.7 76 76 E 10 17 29.95 1014 10 16 0.00 0.00
8:53 pm 20:53 Mostly Cloudy 70 21.1 62 16.7 76 76 SE 9 15 29.94 1014 10 16 0.00 0.00
9:53 pm 21:53 Partly Cloudy 67 19.4 62 16.7 84 84 SE 5 7 29.95 1014 10 16 0.00 0.00
10:53 pm 22:53 Mostly Clear 67 19.4 62 16.7 84 84 Calm 29.96 1015 10 16 0.00 0.00
11:53 pm 23:53 Cloudy 66 18.9 62 16.7 87 87 ESE 3 6 29.95 1014 10 16 0.00 0.00

Powered by AerisWeather